Location: DARK SKY Beskydy - Park tmavé oblohy, www.darkskybeskydy.cz
(49.4926°N, 18.5016°E)
Time: 01:22:46
(UTC+02:00)

TIGRISAT - Pass Details

Date: 04 August 2024
Orbit: 591 x 668 km, 97.7° (Epoch: 14 September)

Event Time Altitude Azimuth Distance (km) Brightness Sun altitude
Rises 04:36:55 0° 173° (S) 2,961 ? -7.0°
Reaches altitude 10° 04:39:10 10° 176° (S) 2,044 ? -6.7°
Maximum altitude 04:43:35 65° 259° (WSW) 706 ? -6.1°
Drops below altitude 10° 04:47:57 10° 341° (NNW) 2,011 ? -5.5°
Sets 04:50:09 0° 345° (NNW) 2,910 ? -5.2°
